Stations météo

Publicité
Lorient Lan Bihoue, France (7205): Température de l'air & dewpoint: 12.08.2018 00:00:00 - 18.08.2018 00:00:00 (CEST)Lorient Lan Bihoue, France (7205): Température de l'air 5cm: 12.08.2018 00:00:00 - 18.08.2018 00:00:00 (CEST)Lorient Lan Bihoue, France (7205): Température de l'air -20cm: 12.08.2018 00:00:00 - 18.08.2018 00:00:00 (CEST)Lorient Lan Bihoue, France (7205): Vitesse du vent & gusts: 12.08.2018 00:00:00 - 18.08.2018 00:00:00 (CEST)Lorient Lan Bihoue, France (7205): Direction du vent: 12.08.2018 00:00:00 - 18.08.2018 00:00:00 (CEST)Lorient Lan Bihoue, France (7205): reduced air pressure: 12.08.2018 00:00:00 - 18.08.2018 00:00:00 (CEST)Lorient Lan Bihoue, France (7205): visibility: 12.08.2018 00:00:00 - 18.08.2018 00:00:00 (CEST)Lorient Lan Bihoue, France (7205): Ensoleillement: 12.08.2018 00:00:00 - 18.08.2018 00:00:00 (CEST)Lorient Lan Bihoue, France (7205): Quantités de précipitations: 12.08.2018 00:00:00 - 18.08.2018 00:00:00 (CEST)
Date & Time tt [°C] td [°C] tt 5cm [°C] tt -20cm [°C] ff [km/h] ff [knt] fx [km/h] fx [knt] dd ppp [hPa] vv [km] sd [min] rr [mm]
18.08.2018 00:00:00 14,6 12,6 12,1 19,7 6 3 13 7 NW 1025,8 47 0 0,0
17.08.2018 23:00:00 14,7 12,0 12,4 19,6 8 5 16 8 WNW 1025,7 51 0 0,0
17.08.2018 22:00:00 15,7 11,7 13,4 19,7 7 4 13 7 NW 1025,2 55 0 0,0
17.08.2018 21:00:00 18,3 11,8 16,9 19,7 9 5 18 10 NNW 1024,5 56 33 0,0
17.08.2018 20:00:00 19,0 11,8 18,4 19,6 13 7 23 13 NW 1024,0 54 53 0,0
17.08.2018 19:00:00 20,8 12,7 20,9 19,5 12 6 22 12 NW 1023,8 47 7 0,0
17.08.2018 18:00:00 19,8 10,8 21,3 19,4 11 6 23 12 NW 1023,7 51 17 0,0
17.08.2018 17:00:00 19,8 13,5 21,2 19,3 16 9 26 14 W 1024,0 36 2 0,0
17.08.2018 16:00:00 20,1 11,0 24,5 19,2 11 6 24 13 NNW 1024,4 55 18 0,0
17.08.2018 15:00:00 20,2 10,9 21,6 19,2 11 6 26 14 NW 1024,6 52 9 0,0
17.08.2018 14:00:00 19,8 10,8 20,2 19,1 13 7 23 12 NW 1024,6 53 11 0,0
17.08.2018 13:00:00 19,0 12,0 20,6 19,0 10 6 19 11 NNW 1024,6 54 7 0,0
17.08.2018 12:00:00 18,5 12,5 21,4 19,0 9 5 20 11 N 1024,5 49 28 0,0
17.08.2018 11:00:00 18,0 13,1 25,0 19,1 12 7 20 11 NNW 1024,4 33 58 0,0
17.08.2018 10:00:00 16,3 14,0 20,2 19,1 6 3 12 7 NNW 1024,0 20 60 0,0
17.08.2018 09:00:00 13,4 13,4 11,3 19,3 4 2 8 4 NW 1023,4 20 60 0,0
17.08.2018 08:00:00 10,8 10,8 4,9 19,4 4 2 5 3 ESE 1023,1 19 24 0,0
17.08.2018 07:00:00 9,6 9,6 5,3 19,5 3 2 9 5 N 1022,6 14 0 0,0
17.08.2018 06:00:00 10,8 10,8 8,8 19,6 7 4 14 7 NW 1022,0 37 0 0,0
17.08.2018 05:00:00 10,6 10,6 7,0 19,8 8 5 13 7 NW 1021,7 42 0 0,0
17.08.2018 04:00:00 10,6 10,6 8,1 19,9 5 3 10 5 NW 1021,6 42 0 0,0
17.08.2018 03:00:00 11,2 11,2 9,2 20,0 7 4 12 6 NNW 1021,4 46 0 0,0
17.08.2018 02:00:00 11,7 11,5 9,3 20,1 8 4 12 7 NNW 1021,2 54 0 0,0
17.08.2018 01:00:00 11,8 11,2 8,8 20,3 6 3 11 6 NW 1021,2 54 0 0,0
17.08.2018 00:00:00 12,4 11,0 9,0 20,4 7 4 12 7 NNW 1020,7 60 0 0,0
16.08.2018 23:00:00 13,3 10,8 9,5 20,4 4 2 13 7 NNW 1019,9 59 0 0,0
16.08.2018 22:00:00 14,5 10,7 11,4 20,5 6 4 16 8 NNW 1019,4 59 0 0,0
16.08.2018 21:00:00 16,9 11,2 14,4 20,5 7 4 21 11 NNW 1018,5 60 50 0,0
16.08.2018 20:00:00 18,6 11,9 17,8 20,5 10 5 26 14 NNW 1017,9 47 33 0,0
16.08.2018 19:00:00 19,1 15,2 18,3 20,5 19 10 29 16 NW 1017,8 20 7 0,0
16.08.2018 18:00:00 17,8 14,9 18,2 20,5 11 6 21 11 NNW 1017,6 20 0 0,0
16.08.2018 17:00:00 18,1 15,0 18,8 20,5 11 6 32 18 NNW 1017,5 43 0 0,0
16.08.2018 16:00:00 19,7 16,9 21,0 20,4 13 7 37 20 NW 1017,2 50 0 0,0
16.08.2018 15:00:00 19,0 18,2 22,6 20,3 20 11 35 19 W 1017,2 14 1 0,0
16.08.2018 14:00:00 19,8 18,1 22,9 20,2 24 13 35 19 W 1017,1 39 12 0,0
16.08.2018 13:00:00 19,7 17,5 23,0 20,2 25 14 40 22 W 1017,2 36 7 0,0
16.08.2018 12:00:00 18,9 18,1 21,7 20,2 16 9 27 14 W 1017,3 19 1 0,0
16.08.2018 11:00:00 18,9 18,1 18,6 20,2 12 6 21 11 W 1017,3 54 1 0,0
16.08.2018 10:00:00 17,1 17,1 17,4 20,2 16 9 22 12 W 1017,6 5 0 0,2
16.08.2018 09:00:00 17,2 16,9 16,8 20,2 4 2 6 3 W 1017,5 53 26 0,0
16.08.2018 08:00:00 16,1 16,1 14,1 20,3 0 0 8 4 N 1017,6 43 14 0,0
16.08.2018 07:00:00 15,2 15,2 13,2 20,4 5 3 7 4 ESE 1017,9 43 0 0,0
16.08.2018 06:00:00 15,1 15,1 13,9 20,5 0 0 6 3 N 1017,8 40 0 0,0
16.08.2018 05:00:00 15,2 15,2 12,3 20,6 4 2 9 5 NNW 1018,2 39 0 0,0
16.08.2018 04:00:00 14,1 14,1 10,9 20,8 5 3 8 5 WNW 1018,6 18 0 0,0
16.08.2018 03:00:00 13,8 13,8 10,0 20,9 6 3 9 5 WNW 1019,0 19 0 0,0
16.08.2018 02:00:00 13,7 13,7 9,9 21,0 5 3 8 4 WNW 1019,3 16 0 0,0
16.08.2018 01:00:00 14,8 14,8 12,3 21,1 7 4 11 6 WNW 1019,5 41 0 0,0
16.08.2018 00:00:00 15,4 15,2 13,6 21,1 7 4 11 6 NW 1019,8 47 0 0,0
15.08.2018 23:00:00 16,4 15,8 14,9 21,2 8 5 14 8 WNW 1020,1 49 0 0,0
15.08.2018 22:00:00 17,8 16,1 17,1 21,2 7 4 15 8 W 1020,4 53 1 0,0
15.08.2018 21:00:00 18,5 15,6 18,1 21,1 11 6 20 11 WSW 1020,2 41 51 0,0
15.08.2018 20:00:00 19,7 16,5 20,8 21,0 13 7 21 12 SW 1020,2 42 39 0,0
15.08.2018 19:00:00 20,6 16,2 24,0 20,9 16 8 24 13 W 1020,6 36 47 0,0
15.08.2018 18:00:00 21,0 16,2 26,3 20,8 16 8 22 12 W 1021,0 30 49 0,0
15.08.2018 17:00:00 21,1 16,5 27,9 20,7 15 8 22 12 W 1021,4 20 18 0,0
15.08.2018 16:00:00 21,0 16,8 26,0 20,6 15 8 21 12 WSW 1021,9 20 0 0,0
15.08.2018 15:00:00 20,4 17,6 25,8 20,5 13 7 22 12 W 1022,4 33 0 0,0
15.08.2018 14:00:00 20,6 16,4 25,3 20,5 11 6 19 10 WSW 1022,6 37 0 0,0
15.08.2018 13:00:00 20,4 17,0 22,9 20,5 12 6 16 9 W 1022,7 20 0 0,0
15.08.2018 12:00:00 19,9 17,3 22,5 20,5 9 5 14 7 WSW 1022,9 20 0 0,0
15.08.2018 11:00:00 19,1 16,5 21,4 20,5 4 2 6 4 WNW 1023,0 30 0 0,0
15.08.2018 10:00:00 18,3 17,1 18,5 20,5 0 0 7 4 N 1023,0 28 0 0,0
15.08.2018 09:00:00 17,6 16,8 17,3 20,6 2 1 5 3 NW 1022,9 18 0 0,0
15.08.2018 08:00:00 17,2 16,2 16,7 20,6 2 1 6 3 ESE 1022,8 27 0 0,0
15.08.2018 07:00:00 17,0 15,9 16,3 20,7 4 2 7 4 SE 1022,6 29 0 0,0
15.08.2018 06:00:00 16,9 15,8 15,1 20,7 5 3 10 6 NW 1022,6 30 0 0,0
15.08.2018 05:00:00 17,0 15,2 15,3 20,8 5 3 9 5 NW 1022,7 31 0 0,0
15.08.2018 04:00:00 16,6 14,6 12,8 20,8 4 2 11 6 N 1023,2 32 0 0,0
15.08.2018 03:00:00 17,8 14,7 17,1 20,9 9 5 20 11 N 1023,2 38 0 0,0
15.08.2018 02:00:00 18,1 16,3 17,6 21,0 11 6 19 10 NNW 1023,4 35 0 0,0
15.08.2018 01:00:00 18,6 17,1 18,3 21,0 11 6 18 10 WNW 1023,2 42 0 0,0
15.08.2018 00:00:00 18,8 18,0 17,2 21,0 8 5 15 8 WNW 1023,2 47 0 0,0
14.08.2018 23:00:00 18,4 17,9 17,1 21,0 10 5 14 8 WNW 1022,9 50 0 0,0
14.08.2018 22:00:00 19,2 18,4 18,5 21,0 9 5 19 10 W 1022,7 26 0 0,0
14.08.2018 21:00:00 19,1 18,1 19,1 20,9 15 8 26 14 W 1022,1 28 29 0,0
14.08.2018 20:00:00 21,5 18,7 22,5 20,8 16 9 27 15 WSW 1021,7 16 55 0,0
14.08.2018 19:00:00 22,0 18,8 25,1 20,7 19 10 35 19 W 1021,7 28 40 0,0
14.08.2018 18:00:00 22,0 19,5 24,0 20,6 27 15 38 20 W 1021,9 29 34 0,0
14.08.2018 17:00:00 22,6 19,8 26,6 20,5 17 9 30 16 WSW 1022,1 20 32 0,0
14.08.2018 16:00:00 20,4 19,1 24,6 20,4 16 8 22 12 WSW 1022,5 37 0 0,0
14.08.2018 15:00:00 19,5 18,8 23,7 20,3 16 9 26 14 WSW 1022,3 11 6 0,0
14.08.2018 14:00:00 19,1 18,1 23,2 20,2 19 10 27 15 W 1022,3 13 5 0,0
14.08.2018 13:00:00 19,2 17,0 23,6 20,2 17 9 23 12 W 1022,0 41 1 0,0
14.08.2018 12:00:00 19,7 16,5 20,9 20,1 13 7 19 11 W 1021,9 36 1 0,0
14.08.2018 11:00:00 18,4 15,5 20,4 20,2 11 6 15 8 SW 1021,4 39 4 0,0
14.08.2018 10:00:00 18,7 15,2 19,3 20,2 9 5 16 9 NW 1021,0 46 36 0,0
14.08.2018 09:00:00 17,1 15,6 15,6 20,2 8 4 13 7 WNW 1020,6 53 1 0,0
14.08.2018 08:00:00 16,2 15,4 15,3 20,3 7 4 13 7 NW 1020,2 48 0 0,0
14.08.2018 07:00:00 15,9 15,7 13,7 20,4 8 5 13 7 SE 1019,5 37 0 0,0
14.08.2018 06:00:00 15,8 15,5 14,6 20,5 8 4 15 8 W 1018,9 42 0 0,0
14.08.2018 05:00:00 15,1 14,9 11,9 20,6 6 4 10 5 W 1018,5 50 0 0,0
14.08.2018 04:00:00 15,0 15,0 12,1 20,7 6 3 12 6 WNW 1018,5 50 0 0,0
14.08.2018 03:00:00 14,0 14,0 10,4 20,8 7 4 11 6 WNW 1018,3 20 0 0,0
14.08.2018 02:00:00 14,2 14,2 11,2 20,9 6 3 9 5 WNW 1017,9 32 0 0,0
14.08.2018 01:00:00 15,1 14,9 13,3 21,0 5 3 16 8 WNW 1017,5 36 0 0,0
14.08.2018 00:00:00 15,7 15,2 14,2 21,0 10 5 18 10 WNW 1016,9 40 0 0,0
13.08.2018 23:00:00 16,8 15,7 15,2 21,0 11 6 19 10 WNW 1016,4 49 0 0,0
13.08.2018 22:00:00 18,1 15,7 16,5 21,0 13 7 24 13 WNW 1015,5 59 4 0,0
13.08.2018 21:00:00 19,9 15,3 18,8 21,0 14 8 32 18 NW 1014,6 57 53 0,0
13.08.2018 20:00:00 21,0 15,3 20,9 20,9 18 10 34 18 WNW 1013,9 45 52 0,0
13.08.2018 19:00:00 21,7 16,6 23,6 20,8 13 7 34 18 W 1013,3 47 12 0,0
13.08.2018 18:00:00 21,4 16,8 23,9 20,7 26 14 38 21 W 1013,1 38 38 0,0
13.08.2018 17:00:00 21,7 17,9 26,2 20,5 26 14 40 22 W 1012,9 42 45 0,0
13.08.2018 16:00:00 20,9 17,7 25,2 20,4 26 14 38 20 W 1012,9 48 7 0,0
13.08.2018 15:00:00 20,0 17,0 19,8 20,3 28 15 37 20 W 1012,8 40 1 0,6
13.08.2018 14:00:00 20,7 16,9 22,3 20,2 26 14 42 23 W 1012,5 20 31 0,0
13.08.2018 13:00:00 19,0 17,3 21,3 20,1 22 12 33 18 W 1012,5 20 31 0,0
13.08.2018 12:00:00 20,8 17,6 24,2 20,1 20 11 29 16 WSW 1012,0 38 53 0,0
13.08.2018 11:00:00 19,4 18,1 20,2 20,1 17 9 25 13 W 1011,8 27 20 0,0
13.08.2018 10:00:00 17,7 17,7 18,7 20,1 14 8 21 11 W 1011,6 15 0 0,0
13.08.2018 09:00:00 17,5 17,5 17,2 20,1 11 6 23 12 W 1011,2 24 0 0,0
13.08.2018 08:00:00 17,2 17,2 16,6 20,1 13 7 27 14 W 1010,7 38 0 0,0
13.08.2018 07:00:00 17,2 16,9 16,6 20,2 15 8 30 16 W 1010,0 36 0 0,0
13.08.2018 06:00:00 17,2 17,0 16,6 20,2 14 8 26 14 W 1010,0 34 0 0,0
13.08.2018 05:00:00 17,0 16,5 16,5 20,3 12 6 25 14 W 1010,1 38 0 0,0
13.08.2018 04:00:00 17,0 16,8 16,3 20,4 17 9 25 14 W 1010,0 35 0 0,0
13.08.2018 03:00:00 17,1 16,9 16,5 20,4 16 9 30 16 W 1010,2 11 0 0,0
13.08.2018 02:00:00 17,0 17,0 16,3 20,4 16 9 29 16 W 1010,4 33 0 0,0
13.08.2018 01:00:00 16,6 16,6 16,3 20,5 18 10 37 20 W 1010,4 13 0 0,4
13.08.2018 00:00:00 17,5 16,7 15,9 20,5 16 9 25 13 WSW 1010,4 38 0 0,0
12.08.2018 23:00:00 16,8 16,0 15,0 20,5 12 7 22 12 W 1010,7 39 0 0,0
12.08.2018 22:00:00 16,6 15,8 15,5 20,5 16 8 34 18 W 1010,5 40 1 0,0
12.08.2018 21:00:00 17,8 16,8 17,7 20,5 18 10 29 16 W 1010,0 31 0 0,0
12.08.2018 20:00:00 18,0 16,8 18,2 20,4 13 7 25 13 W 1010,0 12 0 0,0
12.08.2018 19:00:00 19,9 15,5 22,3 20,3 18 10 31 17 W 1010,0 43 43 0,0
12.08.2018 18:00:00 20,1 16,9 22,5 20,2 22 12 30 16 WSW 1010,2 40 4 0,0
12.08.2018 17:00:00 20,3 15,7 22,6 20,1 21 11 34 18 W 1010,4 20 30 0,0
12.08.2018 16:00:00 19,2 18,0 22,6 20,1 18 10 35 19 W 1010,8 44 5 0,0
12.08.2018 15:00:00 20,3 19,5 19,2 20,0 22 12 40 22 W 1010,8 20 16 0,0
12.08.2018 14:00:00 19,2 19,2 18,6 20,0 24 13 36 20 SSW 1011,0 7 0 3,3
12.08.2018 13:00:00 18,8 18,8 18,6 20,0 22 12 36 19 SSW 1011,6 3,4 0 3,4
12.08.2018 12:00:00 19,5 19,0 18,8 20,0 19 10 34 19 S 1012,0 20 0 0,2
12.08.2018 11:00:00 20,1 18,9 19,6 20,0 18 10 29 16 S 1011,6 32 0 0,0
12.08.2018 10:00:00 19,3 18,6 18,2 20,0 18 10 27 14 S 1012,5 31 0 0,2
12.08.2018 09:00:00 18,3 18,3 17,1 20,1 9 5 16 9 SSE 1013,1 28 0 0,0
12.08.2018 08:00:00 17,7 17,4 16,3 20,1 9 5 15 8 SE 1013,4 36 0 0,0
12.08.2018 07:00:00 17,2 17,2 16,2 20,2 7 4 10 5 SSE 1014,0 21 0 0,0
12.08.2018 06:00:00 17,4 17,4 16,6 20,2 8 4 15 8 SSE 1014,7 18 0 0,0
12.08.2018 05:00:00 17,3 17,3 15,6 20,3 13 7 17 9 S 1015,6 20 0 0,0
12.08.2018 04:00:00 16,6 16,6 14,2 20,4 9 5 14 7 SSE 1016,0 15 0 0,0
12.08.2018 03:00:00 16,2 16,2 13,2 20,5 6 3 9 5 SE 1016,7 27 0 0,0
12.08.2018 02:00:00 16,0 16,0 12,6 20,6 6 4 10 5 SSE 1017,7 31 0 0,0
12.08.2018 01:00:00 16,1 15,9 11,9 20,6 7 4 10 5 SSE 1018,5 29 0 0,0
12.08.2018 00:00:00 16,2 15,7 13,7 20,7 5 3 9 5 SSE 1019,3 36 0 0,0

tt = Température de l'air
td = dewpoint
tt 5cm = Température de l'air 5cm
tt -20cm = Température de l'air -20cm
ff = Vitesse du vent
fx = gusts
dd = Direction du vent
ppp = reduced air pressure
vv = visibility
sd = Ensoleillement
rr = Quantités de précipitations

stations d'obs. à proximité